This demonstration page uses our WeatherBlox Daily Observations layout. Learn more.

Left ArrowRight Arrow

Hourly Observations for November 3, 2019

Temp ( °F °C ) Dew Point ( °F °C ) Humidity (%) Winds ( mph kmh ) Pressure ( in mb ) Visibility ( mi km ) Precip ( " mm )
12:53 am 00:53 Clear 46 7.8 28 -2.2 50 50 Calm 30.05 1018 10 16 0.00 0.00
1:53 am 01:53 Clear 45 7.2 28 -2.2 52 52 Calm 30.04 1017 10 16 0.00 0.00
1:53 am 01:53 Clear 43 6.1 27 -2.8 53 53 Calm 30.04 1017 10 16 0.00 0.00
2:53 am 02:53 Clear 42 5.6 28 -2.2 58 58 Calm 30.04 1017 10 16 0.00 0.00
3:53 am 03:53 Clear 40 4.4 28 -2.2 63 63 Calm 30.03 1017 10 16 0.00 0.00
4:53 am 04:53 Clear 40 4.4 27 -2.8 60 60 Calm 30.03 1017 10 16 0.00 0.00
5:53 am 05:53 Clear 39 3.9 27 -2.8 62 62 Calm 30.02 1017 N/A 0.00 0.00
6:53 am 06:53 Sunny 39 3.9 27 -2.8 62 62 Calm 30.03 1017 N/A 0.00 0.00
7:53 am 07:53 Sunny 46 7.8 31 -0.6 56 56 Calm 30.04 1017 10 16 0.00 0.00
8:53 am 08:53 Sunny 53 11.7 33 0.6 47 47 Calm 30.03 1017 10 16 0.00 0.00
9:53 am 09:53 Sunny 61 16.1 34 1.1 36 36 SSE 5 7 30.01 1016 10 16 0.00 0.00
10:53 am 10:53 Sunny 68 20 34 1.1 28 28 S 5 7 30.00 1016 10 16 0.00 0.00
11:53 am 11:53 Sunny 74 23.3 34 1.1 23 23 S 3 6 29.97 1015 10 16 0.00 0.00
12:53 pm 12:53 Sunny 77 25 31 -0.6 18 18 S 3 6 29.94 1014 10 16 0.00 0.00
1:53 pm 13:53 Sunny 80 26.7 29 -1.7 15 15 VRB 3 6 29.91 1013 10 16 0.00 0.00
2:53 pm 14:53 Sunny 80 26.7 29 -1.7 15 15 SSE 6 9 29.90 1012 10 16 0.00 0.00
3:53 pm 15:53 Sunny 79 26.1 30 -1.1 17 17 SSE 9 15 29.89 1012 10 16 0.00 0.00
4:53 pm 16:53 Sunny 73 22.8 32 0 22 22 SSE 9 15 29.90 1012 10 16 0.00 0.00
5:53 pm 17:53 Clear 66 18.9 32 0 28 28 SE 5 7 29.91 1013 10 16 0.00 0.00
6:53 pm 18:53 Clear 60 15.6 34 1.1 38 38 Calm 29.93 1014 10 16 0.00 0.00
7:53 pm 19:53 Clear 58 14.4 33 0.6 39 39 N 3 6 29.94 1014 10 16 0.00 0.00
8:53 pm 20:53 Clear 53 11.7 33 0.6 47 47 Calm 29.96 1014 10 16 0.00 0.00
9:53 pm 21:53 Clear 51 10.6 32 0 48 48 Calm 29.97 1015 10 16 0.00 0.00
10:53 pm 22:53 Clear 49 9.4 32 0 52 52 Calm 29.97 1015 10 16 0.00 0.00
11:53 pm 23:53 Clear 47 8.3 32 0 56 56 NE 3 6 29.98 1015 10 16 0.00 0.00

Powered by AerisWeather